Jefferson, NC

10:23 PM EST on December 08, 2019 (GMT -0500)
Ashe County

Weather History for KGEV - October, 2019

Change the Weather History Date:

Monday, October 7, 2019

  Actual Average Record
Temperature  
Mean Temperature 61 °F -  
Max Temperature 65 °F 64 °F 78 °F (1990)
Min Temperature 57 °F 40 °F 25 °F (1980)
Degree Days  
Heating Degree Days 4    
Growing Degree Days 11 (Base 50)    
Moisture  
Dew Point 58 °F    
Average Humidity 92    
Maximum Humidity 100    
Minimum Humidity 76    
Precipitation  
Precipitation 0.11 in - - ()
Sea Level Pressure  
Sea Level Pressure 30.19 in    
Wind  
Wind Speed 2 mph ()    
Max Wind Speed 7 mph    
Max Gust Speed -    
Visibility 8.9 miles    
Events Rain    
Averages and records for this station are not official NWS values.
T = Trace of Precipitation, MM = Missing Value Source: Averaged Metar Reports

Daily Weather History Graph

Daily Weather History Graph

Search for Another Location

Airport or City:

Astronomy

Oct. 07, 2019 Rise Set
Actual Time 7:25 AM EDT 7:00 PM EDT
Civil Twilight 6:59 AM EDT 7:26 PM EDT
Nautical Twilight 6:30 AM EDT 7:56 PM EDT
Astronomical Twilight 6:00 AM EDT 8:26 PM EDT
Moon 4:10 PM EDT (10/7) 1:29 AM EDT (10/7)
Length of Visible Light 12h 26m
Length of Day
11h 35m
Waxing Gibbous, 69% of the Moon is Illuminated
Oct 7
Waxing Gibbous
Oct 13
Full
Oct 21
Last Quarter
Oct 27
New
Nov 4
First Quarter

Hourly Weather History & Observations

Time (EDT) Temp. Dew Point Humidity Pressure Visibility Wind Dir Wind Speed Gust Speed Precip Events Conditions
12:15 AM 58.6 °F 58.3 °F 99% 30.29 in 10.0 mi SSE 3.5 mph - N/A   Light Drizzle
12:35 AM 58.6 °F 58.3 °F 99% 30.29 in 10.0 mi Calm Calm - N/A   Overcast
12:55 AM 58.8 °F 58.3 °F 98% 30.29 in 10.0 mi Calm Calm - N/A   Overcast
1:15 AM 59.2 °F 58.6 °F 98% 30.28 in 10.0 mi Calm Calm - N/A   Overcast
1:35 AM 59.4 °F 58.6 °F 97% 30.28 in 10.0 mi SE 3.5 mph - N/A Rain Light Rain
1:55 AM 59.4 °F 59.0 °F 99% 30.27 in 7.0 mi SE 3.5 mph - N/A   Drizzle
2:15 AM 59.0 °F 58.8 °F 99% 30.27 in 5.0 mi SSE 3.5 mph - N/A   Drizzle
2:35 AM 59.0 °F 58.6 °F 99% 30.26 in 7.0 mi SSE 3.5 mph - N/A   Unknown
2:55 AM 59.0 °F 58.6 °F 99% 30.26 in 7.0 mi Calm Calm - N/A   Overcast
3:15 AM 59.0 °F 58.6 °F 99% 30.25 in 5.0 mi Calm Calm - N/A   Overcast
3:35 AM 59.0 °F 58.8 °F 99% 30.24 in 5.0 mi South 3.5 mph - N/A   Overcast
3:55 AM 59.0 °F 59.0 °F 100% 30.24 in 3.0 mi SSE 3.5 mph - N/A   Mist
4:15 AM 58.6 °F 58.6 °F 100% 30.24 in 4.0 mi Calm Calm - N/A   Mist
4:35 AM 59.0 °F 59.0 °F 100% 30.24 in 4.0 mi Calm Calm - N/A Rain Light Rain
4:55 AM 58.8 °F 58.8 °F 100% 30.24 in 4.0 mi Calm Calm - N/A   Light Drizzle
5:15 AM 59.0 °F 59.0 °F 100% 30.23 in 7.0 mi Calm Calm - N/A   Unknown
5:35 AM 59.0 °F 58.6 °F 99% 30.23 in 10.0 mi Calm Calm - N/A   Overcast
5:55 AM 59.0 °F 58.6 °F 99% 30.23 in 10.0 mi Calm Calm - N/A   Overcast
6:15 AM 59.0 °F 58.5 °F 98% 30.22 in 10.0 mi Calm Calm - N/A   Overcast
6:35 AM 59.0 °F 58.5 °F 98% 30.22 in 10.0 mi SSE 3.5 mph - N/A   Overcast
6:55 AM 59.0 °F 58.3 °F 97% 30.21 in 10.0 mi SSE 3.5 mph - N/A   Overcast
7:15 AM 59.0 °F 58.1 °F 97% 30.21 in 10.0 mi SSE 3.5 mph - N/A   Overcast
7:35 AM 59.0 °F 58.1 °F 97% 30.21 in 10.0 mi SSE 3.5 mph - N/A   Overcast
7:55 AM 59.0 °F 58.1 °F 97% 30.22 in 10.0 mi SSE 3.5 mph - N/A   Overcast
8:15 AM 58.8 °F 58.1 °F 97% 30.21 in 10.0 mi SSE 3.5 mph - N/A   Overcast
8:35 AM 58.8 °F 58.1 °F 97% 30.21 in 10.0 mi Calm Calm - N/A   Overcast
8:55 AM 59.0 °F 58.1 °F 97% 30.20 in 10.0 mi Calm Calm - N/A   Overcast
10:15 AM 60.3 °F 57.6 °F 91% 30.22 in 10.0 mi South 4.6 mph - N/A   Overcast
10:35 AM 60.8 °F 57.7 °F 90% 30.22 in 10.0 mi SSE 4.6 mph - N/A   Overcast
10:55 AM 61.0 °F 57.9 °F 90% 30.21 in 10.0 mi SSE 5.8 mph - N/A   Overcast
11:15 AM 60.8 °F 57.2 °F 88% 30.21 in 10.0 mi SSE 3.5 mph - N/A   Overcast
11:35 AM 60.8 °F 57.4 °F 88% 30.21 in 10.0 mi Calm Calm - N/A   Overcast
11:55 AM 60.8 °F 57.6 °F 89% 30.21 in 10.0 mi SSE 4.6 mph - N/A   Overcast
12:15 PM 62.4 °F 57.9 °F 85% 30.21 in 10.0 mi South 5.8 mph - N/A   Overcast
12:35 PM 62.2 °F 57.7 °F 85% 30.20 in 10.0 mi Calm Calm - N/A   Overcast
12:55 PM 62.6 °F 57.7 °F 84% 30.20 in 10.0 mi South 4.6 mph - N/A   Overcast
1:15 PM 63.1 °F 57.2 °F 81% 30.20 in 10.0 mi Calm Calm - N/A   Unknown
1:55 PM 64.2 °F 57.7 °F 79% 30.18 in 10.0 mi SSE 3.5 mph - N/A   Unknown
2:15 PM 64.2 °F 57.4 °F 78% 30.17 in 10.0 mi SSE 4.6 mph - N/A   Unknown
2:35 PM 64.6 °F 57.7 °F 78% 30.15 in 10.0 mi SSE 4.6 mph - N/A   Unknown
2:55 PM 64.6 °F 57.4 °F 77% 30.15 in 10.0 mi SSE 4.6 mph - N/A   Unknown
3:15 PM 65.3 °F 57.7 °F 76% 30.14 in 10.0 mi SE 4.6 mph - N/A   Unknown
3:35 PM 65.3 °F 57.4 °F 76% 30.14 in 10.0 mi SSE 4.6 mph - N/A   Unknown
3:55 PM 64.6 °F 57.6 °F 78% 30.14 in 10.0 mi SSE 6.9 mph - N/A   Unknown
4:15 PM 64.4 °F 57.4 °F 78% 30.14 in 10.0 mi SSE 5.8 mph - N/A   Unknown
4:35 PM 64.8 °F 57.4 °F 77% 30.13 in 10.0 mi SSE 3.5 mph - N/A   Unknown
4:55 PM 65.3 °F 57.4 °F 76% 30.12 in 10.0 mi SSE 4.6 mph - N/A   Unknown
5:15 PM 64.4 °F 57.0 °F 77% 30.13 in 10.0 mi South 5.8 mph - N/A   Unknown
5:35 PM 63.5 °F 57.7 °F 81% 30.13 in 10.0 mi Calm Calm - N/A   Unknown
5:55 PM 63.7 °F 58.1 °F 82% 30.13 in 10.0 mi Calm Calm - N/A   Unknown
6:15 PM 63.9 °F 57.6 °F 80% 30.13 in 10.0 mi Calm Calm - N/A   Unknown
6:35 PM 63.3 °F 58.1 °F 83% 30.13 in 10.0 mi Calm Calm - N/A   Unknown
6:55 PM 63.7 °F 57.4 °F 80% 30.13 in 10.0 mi Calm Calm - N/A   Unknown
7:15 PM 62.4 °F 58.1 °F 86% 30.14 in 10.0 mi NW 4.6 mph - N/A   Unknown
7:35 PM 61.0 °F 59.0 °F 93% 30.14 in 10.0 mi West 4.6 mph - N/A Rain Light Rain
7:55 PM 60.4 °F 59.0 °F 95% 30.15 in 5.0 mi Calm Calm - N/A   Heavy Drizzle
8:15 PM 60.1 °F 59.4 °F 97% 30.15 in 7.0 mi Calm Calm - 0.02 in Rain Heavy Rain
8:35 PM 59.2 °F 59.0 °F 99% 30.15 in 4.0 mi Calm Calm - 0.08 in Rain Rain
8:55 PM 59.2 °F 59.2 °F 100% 30.16 in 0.8 mi Calm Calm - 0.10 in Rain Light Rain
9:15 PM 59.2 °F 59.2 °F 100% 30.17 in 10.0 mi Calm Calm - 0.01 in   Drizzle
9:35 PM 58.3 °F 58.3 °F 100% 30.16 in 10.0 mi NNW 3.5 mph - 0.01 in   Light Drizzle
9:55 PM 58.1 °F 58.1 °F 100% 30.17 in 10.0 mi Calm Calm - 0.01 in   Overcast
10:15 PM 58.3 °F 57.7 °F 98% 30.17 in 10.0 mi Calm Calm - N/A   Overcast
10:35 PM 58.3 °F 58.1 °F 99% 30.17 in 10.0 mi Calm Calm - N/A   Overcast
10:55 PM 58.1 °F 57.6 °F 98% 30.17 in 10.0 mi Calm Calm - N/A   Overcast
11:15 PM 57.7 °F 57.7 °F 100% 30.17 in 10.0 mi Calm Calm - N/A   Overcast
11:35 PM 57.9 °F 57.6 °F 99% 30.16 in 10.0 mi Calm Calm - N/A   Overcast
11:55 PM 58.1 °F 57.6 °F 98% 30.16 in 10.0 mi Calm Calm - N/A   Overcast